Вернуться в каталог

STARLINK-4524

АктивенСвязьVLEO
NORAD 53396·PAYLOAD·🇺🇸 United States

Запущен Aug 10, 2022 с Cape Canaveral Space Force Station

Loading…

Ближайшие Пролёты (ближайшие 24 часа)

TLE

СвежийSource: CelesTrak SupGP

Эпоха: Sep 14, 2026, 21:34 UTC

1 53396C 22097J   26257.89909722 -.00054698  00000+0 -15648-2 0  2570
2 53396  53.1592 348.6546 0001659  82.7924   3.4270 15.35429428    12

Отслеживайте STARLINK-4524 в реальном времени с AllMySat

Download on the App Store